STARLINK-4499 (53402 NORAD) Tracking and Keplerian Element Data

This shows tracking and keplerian element data for the satellite.

Feedback or suggestion? Click here.




ElementValue
Catalog53402
NameSTARLINK-4499
Epoch Orbit789
Epoch Day270.25001157
Epoch Year2022
RAAN17.9469
Inclination53.2182
Eccentricity0.0001721
Argument of Perigee60.5341
Mean Anonmoly342.7334
Mean Motion15.08810949
Decay Rate0.00050681
L11 53402U 22097Q 22270.25001157 .00050681 00000+0 31822-2 0 9995
L22 53402 53.2182 17.9469 0001721 60.5341 342.7334 15.08810949 7898

Live tracking and technical data element details for STARLINK-4499 (NORAD 53402). STARLINK-4499 can be tracked NOW for your location showing map with azimuth and elevation plus other details from your city location.

Track the satellite on the map from your city or location and see movement details for azimuth, elevation, latitude, longitude, range, height, and movement on the map or in text.







IsCatalogInMostPopularTable: catalog: 53402, numindb: 3
Update: records affected: 1



GetName: 53402 STARLINK-4499

Hit Count: updated at: Fri, 30 Sep 2022 04:15:22 GMT